THOR ABLESTAR DEB, 3748

Orbit data source: Space-Track

THOR ABLESTAR DEB, 3748 is space debris in LEO originally from a launch on Thu, 29 Jun 1961 UTC launched from the Air Force Eastern Test Range (AFETR). Debris objects in space refer to the collection of defunct objects orbiting the Earth. Examples of debris include non-operational satellites, rocket bodies, and fragments generated from explosions, collisions, or faulty payload assembly.

Loading next visibility...
Identifier
3748, 1961-015JD
Orbit
LEO
Country
Flag of USUS
Related business
Manufacturer
Unknown
Mission
Spacecraft
Bus & Motor
Unknown
Mass
Unknown
Launch date (UTC)
1961-06-29 (64 years ago)
Launch vehicle
Unknown
Launch site
Air Force Eastern Test Range (AFETR)
Object type
Payload
Rocket body
Debris
Shape & HBR
Unknown shape, 0.1 m
Radar Cross Section
Small (<0.1 m²)

Expand to show TLE details & history
Last TLE update: 12 hours ago

TLE from 12 hours ago
0 THOR ABLESTAR DEB
1 03748U 61015JD  25293.95107532  .00000464  00000-0  12719-2 0  9994
2 03748  67.7427 254.0046 0522284  99.3558 333.4891 12.79941116663209
Epoch: 2025-10-20T22:49Z
TLE epoch observation values (Epoch: 2025-10-20T22:49:32.907Z)
Latitude
60.54046°
Longitude
-71.91116°
Altitude
994.92 km
Speed
7.528 km/s
True Right ascension
20h 00m 29s
True Declination
60° 23' 52"
Sunlit
Object was in daylight at epoch
Visualization orbit readout
Latitude
Unknown
Longitude
Unknown
Altitude
Unknown
Speed
Unknown
Apparent Right ascension
Unknown
Apparent Declination
Unknown
Sunlit
N/A
Visualization observer readout
Local Sidereal Time
06:03:22
Azimuth
Unknown
Elevation
Unknown
Doppler factor
Unknown
Orbital elements
Apogee altitude
1,743.19 km
Perigee altitude
936.97 km
Semi-major axis
7,718.217 km
Eccentricity
0.05223
Inclination
67.7427°
RAAN
254.0046°
Arg. of periapsis
99.3558°
True anomaly
330.65347°
Mean anomaly
333.4891°
Eccentric anomaly
332.0883°
Mean motion
3.20087 °/min
Orbital period
112.47 mins
BSTAR
0.0012719

Documentation

Showing up to 5 results
|